Flag for Australia Weather past 2 weeks in Armidale, New South Wales, Australia

Now
61 °F

Cool.


Feels Like: 61 °F
Forecast: 60 / 76 °F
Wind: 5 mph from East

Location: Armidale Airport Aws

Current Time: Mar 1, 2015 at 6:58:57 AM

Latest Report: Mar 1, 2015 at 6:00 AM


Visibility: N/A

Pressure: 29.77 "Hg

Humidity: 99%

Dew point: 61 °F

Location of ArmidaleLocation

Historic Weather in Armidale — Graph

°F

Armidale temperature yesterday

Maximum temperature yesterday: 80 °F (at 4:00 PM)
Minimum temperature yesterday: 56 °F (at 6:00 AM)
Average temperature yesterday: 67 °F

Past Weeks' High & Low Weather Summary

 TemperatureHumidityPressure
High80 °F (Feb 28, 4:00 PM)100% (Feb 20, 6:00 AM)30.14 "Hg (Feb 20, 6:00 AM)
Low52 °F (Feb 18, 3:00 AM)39% (Feb 28, 3:00 PM)29.68 "Hg (Feb 27, 4:00 AM)
Average64 °F85%29.90 "Hg
* Reported Feb 14 4:00 AM — Mar 1 4:00 AM, Armidale, Weather by CustomWeather, © 2015

Note: Actual official high and low records may vary slightly from our data, if they occured in-between our weather recording intervals... More about our weather records

Advertising

Armidale weather history for previous 24 hours

 ConditionsComfort  
Time TempWeatherWind HumidityBarometerVisibility
4:00 AM
Sun, Mar 1
62 °FCool.8 mph99%29.76 "HgN/A
3:00 AM64 °FPassing clouds.9 mph98%29.77 "HgN/A
1:00 AM64 °FMild.8 mph98%29.80 "HgN/A
12:00 AM64 °FPassing clouds.8 mph98%29.81 "HgN/A
10:00 PM
Sat, Feb 28
67 °FMild.9 mph86%29.81 "HgN/A
9:00 PM69 °FOvercast.12 mph86%29.79 "HgN/A
7:00 PM76 °FMild.5 mph52%29.75 "HgN/A
6:00 PM77 °FOvercast.3 mph42%29.74 "HgN/A
4:00 PM80 °FPleasantly warm.7 mph39%29.74 "HgN/A
3:00 PM79 °FPassing clouds.6 mph39%29.76 "HgN/A
1:00 PM75 °FMild.8 mph47%29.80 "HgN/A
12:00 PM74 °FPassing clouds.6 mph51%29.82 "HgN/A
10:00 AM70 °FMild.7 mph73%29.83 "HgN/A
9:00 AM63 °FMild.No wind83%29.83 "HgN/A
7:00 AM56 °FCool.8 mph99%29.79 "HgN/A
6:00 AM56 °FCool.7 mph99%29.77 "HgN/A
Weather by CustomWeather, © 2015

See weather overviewHow to use our weather pages